• In Portugal
  • List of Countries
  • For 7 days
  • Water Temperature
  • Satellite Maps
  • Weather Map
  • Weather Widgets
  • user-avatar
    Login

    Hourly Weather Marmaris

    Today, 20 October, Friday

    Time Temperature Precipitation Wind Pressure Humidity
    00:00 +20°C° 0 mm 2 mps 759 mmHg 54%
    01:00 +20°C° 0 mm 2 mps 759 mmHg 54%
    02:00 +19°C° 0 mm 2 mps 759 mmHg 54%
    03:00 +19°C° 0 mm 2 mps 759 mmHg 53%
    04:00 +19°C° 0 mm 2 mps 759 mmHg 52%
    05:00 +19°C° 0 mm 2 mps 758 mmHg 51%
    06:00 +20°C° 0 mm 2 mps 759 mmHg 47%
    07:00 +23°C° 0 mm 2 mps 759 mmHg 43%
    08:00 +24°C° 0 mm 2 mps 759 mmHg 39%
    09:00 +26°C° 0 mm 2 mps 759 mmHg 34%
    10:00 +28°C° 0 mm 2 mps 759 mmHg 30%
    11:00 +30°C° 0 mm 2 mps 759 mmHg 26%
    12:00 +30°C° 0 mm 2 mps 759 mmHg 26%
    13:00 +30°C° 0 mm 3 mps 759 mmHg 26%
    14:00 +31°C° 0 mm 3 mps 758 mmHg 26%
    15:00 +29°C° 0 mm 3 mps 758 mmHg 32%
    16:00 +27°C° 0 mm 3 mps 758 mmHg 38%
    17:00 +26°C° 0 mm 3 mps 758 mmHg 44%
    18:00 +25°C° 0 mm 2 mps 758 mmHg 48%
    19:00 +23°C° 0 mm 2 mps 759 mmHg 52%
    20:00 +21°C° 0 mm 2 mps 759 mmHg 56%
    21:00 +21°C° 0 mm 2 mps 759 mmHg 55%
    22:00 +20°C° 0 mm 2 mps 759 mmHg 54%
    23:00 +20°C° 0 mm 2 mps 759 mmHg 53%

    Tomorrow, 21 October, Saturday

    Time Temperature Precipitation Wind Pressure Humidity
    00:00 +20°C° 0 mm 2 mps 759 mmHg 51%
    01:00 +20°C° 0 mm 2 mps 759 mmHg 50%
    02:00 +19°C° 0 mm 3 mps 759 mmHg 49%
    03:00 +19°C° 0 mm 3 mps 758 mmHg 47%
    04:00 +19°C° 0 mm 3 mps 758 mmHg 46%
    05:00 +19°C° 0 mm 3 mps 758 mmHg 44%
    06:00 +20°C° 0 mm 3 mps 758 mmHg 41%
    07:00 +21°C° 0 mm 2 mps 758 mmHg 39%
    08:00 +23°C° 0 mm 2 mps 758 mmHg 36%
    09:00 +26°C° 0 mm 2 mps 758 mmHg 32%
    10:00 +28°C° 0 mm 2 mps 758 mmHg 28%
    11:00 +30°C° 0 mm 2 mps 758 mmHg 24%
    12:00 +30°C° 0 mm 3 mps 758 mmHg 24%
    13:00 +30°C° 0 mm 3 mps 757 mmHg 24%
    14:00 +31°C° 0 mm 3 mps 757 mmHg 24%
    15:00 +29°C° 0 mm 3 mps 756 mmHg 29%
    16:00 +27°C° 0 mm 3 mps 756 mmHg 34%
    17:00 +26°C° 0 mm 3 mps 756 mmHg 40%
    18:00 +24°C° 0 mm 3 mps 756 mmHg 42%
    19:00 +22°C° 0 mm 3 mps 757 mmHg 45%
    20:00 +21°C° 0 mm 2 mps 757 mmHg 47%
    21:00 +21°C° 0 mm 2 mps 757 mmHg 45%
    22:00 +20°C° 0 mm 2 mps 757 mmHg 43%
    23:00 +20°C° 0 mm 2 mps 757 mmHg 41%

    Day after tomorrow, 22 October, Sunday

    Time Temperature Precipitation Wind Pressure Humidity
    00:00 +20°C° 0 mm 2 mps 757 mmHg 40%
    01:00 +20°C° 0 mm 2 mps 756 mmHg 39%
    02:00 +20°C° 0 mm 2 mps 756 mmHg 38%
    03:00 +19°C° 0 mm 2 mps 756 mmHg 39%
    04:00 +19°C° 0 mm 2 mps 756 mmHg 39%
    05:00 +19°C° 0 mm 2 mps 756 mmHg 40%
    06:00 +20°C° 0 mm 2 mps 756 mmHg 39%
    07:00 +21°C° 0 mm 2 mps 756 mmHg 37%
    08:00 +23°C° 0 mm 2 mps 756 mmHg 36%
    09:00 +25°C° 0 mm 2 mps 756 mmHg 31%
    10:00 +28°C° 0 mm 2 mps 756 mmHg 27%
    11:00 +30°C° 0 mm 2 mps 756 mmHg 22%
    12:00 +30°C° 0 mm 2 mps 756 mmHg 22%
    13:00 +30°C° 0 mm 3 mps 755 mmHg 21%
    14:00 +30°C° 0 mm 3 mps 755 mmHg 21%
    15:00 +29°C° 0 mm 3 mps 755 mmHg 26%
    16:00 +27°C° 0 mm 3 mps 755 mmHg 30%
    17:00 +25°C° 0 mm 2 mps 754 mmHg 34%
    18:00 +24°C° 0 mm 2 mps 755 mmHg 37%
    19:00 +23°C° 0 mm 2 mps 755 mmHg 39%
    20:00 +20°C° 0 mm 2 mps 755 mmHg 42%
    21:00 +20°C° 0 mm 2 mps 755 mmHg 41%
    22:00 +20°C° 0 mm 2 mps 755 mmHg 40%
    23:00 +19°C° 0 mm 2 mps 755 mmHg 39%

    23 October, Monday

    Time Temperature Precipitation Wind Pressure Humidity
    00:00 +19°C° 0 mm 2 mps 755 mmHg 38%
    01:00 +19°C° 0 mm 2 mps 755 mmHg 37%
    02:00 +19°C° 0 mm 2 mps 755 mmHg 37%
    03:00 +20°C° 0 mm 1 mps 755 mmHg 36%
    04:00 +19°C° 0 mm 1 mps 754 mmHg 36%
    05:00 +19°C° 0 mm 1 mps 754 mmHg 36%
    06:00 +20°C° 0 mm 1 mps 754 mmHg 34%
    07:00 +22°C° 0 mm 1 mps 755 mmHg 33%
    08:00 +23°C° 0 mm 1 mps 755 mmHg 32%
    09:00 +24°C° 0 mm 1 mps 755 mmHg 30%
    10:00 +26°C° 0 mm 1 mps 754 mmHg 28%
    11:00 +28°C° 0 mm 2 mps 754 mmHg 27%
    12:00 +28°C° 0 mm 2 mps 754 mmHg 27%
    13:00 +28°C° 0 mm 2 mps 753 mmHg 28%
    14:00 +28°C° 0 mm 3 mps 753 mmHg 28%
    15:00 +26°C° 0 mm 2 mps 753 mmHg 35%
    16:00 +25°C° 0 mm 2 mps 753 mmHg 42%
    17:00 +23°C° 0 mm 2 mps 753 mmHg 48%
    18:00 +22°C° 0 mm 1 mps 753 mmHg 55%
    19:00 +21°C° 0 mm 1 mps 753 mmHg 62%
    20:00 +19°C° 0 mm 1 mps 754 mmHg 68%
    21:00 +18°C° 0 mm 2 mps 753 mmHg 71%
    22:00 +18°C° 0 mm 2 mps 753 mmHg 74%
    23:00 +17°C° 0 mm 3 mps 753 mmHg 76%

    24 October, Tuesday

    Time Temperature Precipitation Wind Pressure Humidity
    00:00 +17°C° 0 mm 3 mps 753 mmHg 77%
    01:00 +17°C° 0 mm 3 mps 753 mmHg 79%
    02:00 +17°C° 0 mm 4 mps 752 mmHg 80%
    03:00 +17°C° 0.1 mm 4 mps 752 mmHg 80%
    04:00 +15°C° 0.1 mm 5 mps 752 mmHg 80%
    05:00 +15°C° 0.1 mm 5 mps 752 mmHg 81%
    06:00 +17°C° 0.5 mm 6 mps 752 mmHg 75%
    07:00 +19°C° 0.5 mm 6 mps 752 mmHg 68%
    08:00 +20°C° 0.5 mm 7 mps 752 mmHg 62%
    09:00 +21°C° 0.9 mm 8 mps 752 mmHg 62%
    10:00 +21°C° 0.9 mm 8 mps 752 mmHg 61%
    11:00 +22°C° 0.9 mm 9 mps 752 mmHg 60%
    12:00 +21°C° 2.5 mm 8 mps 751 mmHg 68%
    13:00 +20°C° 2.5 mm 8 mps 751 mmHg 76%
    14:00 +18°C° 2.5 mm 8 mps 751 mmHg 84%
    15:00 +18°C° 2.8 mm 7 mps 751 mmHg 84%
    16:00 +19°C° 2.8 mm 6 mps 751 mmHg 84%
    17:00 +17°C° 2.8 mm 6 mps 751 mmHg 84%
    18:00 +17°C° 1.8 mm 5 mps 751 mmHg 84%
    19:00 +17°C° 1.8 mm 4 mps 751 mmHg 84%
    20:00 +17°C° 1.8 mm 4 mps 751 mmHg 84%
    21:00 +17°C° 0.7 mm 4 mps 752 mmHg 84%
    22:00 +17°C° 0.7 mm 3 mps 752 mmHg 83%
    23:00 +17°C° 0.7 mm 3 mps 752 mmHg 82%

    25 October, Wednesday

    Time Temperature Precipitation Wind Pressure Humidity
    00:00 +17°C° 0.5 mm 3 mps 752 mmHg 84%
    01:00 +17°C° 0.5 mm 3 mps 752 mmHg 86%
    02:00 +17°C° 0.5 mm 3 mps 752 mmHg 87%
    03:00 +17°C° 0.9 mm 3 mps 752 mmHg 88%
    04:00 +17°C° 0.9 mm 3 mps 752 mmHg 89%
    05:00 +17°C° 0.9 mm 4 mps 751 mmHg 90%
    06:00 +17°C° 1.4 mm 4 mps 752 mmHg 89%
    07:00 +18°C° 1.4 mm 4 mps 752 mmHg 88%
    08:00 +18°C° 1.4 mm 4 mps 752 mmHg 87%
    09:00 +19°C° 1.2 mm 3 mps 752 mmHg 85%
    10:00 +19°C° 1.2 mm 3 mps 752 mmHg 83%
    11:00 +20°C° 1.2 mm 3 mps 752 mmHg 80%
    12:00 +20°C° 0.8 mm 3 mps 752 mmHg 79%
    13:00 +20°C° 0.8 mm 3 mps 752 mmHg 77%
    14:00 +21°C° 0.8 mm 3 mps 752 mmHg 75%
    15:00 +20°C° 0.8 mm 3 mps 752 mmHg 78%
    16:00 +19°C° 0.8 mm 3 mps 752 mmHg 80%
    17:00 +19°C° 0.8 mm 2 mps 753 mmHg 82%
    18:00 +18°C° 0.5 mm 2 mps 753 mmHg 84%
    19:00 +17°C° 0.5 mm 3 mps 753 mmHg 86%
    20:00 +17°C° 0.5 mm 3 mps 754 mmHg 88%
    21:00 +17°C° 0.2 mm 3 mps 754 mmHg 88%
    22:00 +16°C° 0.2 mm 3 mps 754 mmHg 88%
    23:00 +16°C° 0.2 mm 3 mps 754 mmHg 88%
    Show more